Regional Weather Roundup
Issued by NWS

Home | Current Version | Previous Version | Text Only | Print | Product List | Glossary On
Versions: 1 2 3 4 5 6 7 8 9 10 11 12 13 14 15 16 17 18 19 20 21 22 23 24 25 26 27 28 29 30 31 32 33 34 35 36 37 38 39 40 41 42 43 44 45 46 47 48 49 50
825
ASUS43 KLSX 090007
RWRMO

WEATHER SUMMARY FOR MISSOURI
NATIONAL WEATHER SERVICE SPRINGFIELD MO
600 PM CST MON FEB 08 2016

NOTE: "FAIR" INDICATES FEW OR NO CLOUDS BELOW 12,000 FEET WITH NO
       SIGNIFICANT WEATHER AND/OR OBSTRUCTIONS TO VISIBILITY.
       CURRENT SKY AND/OR WEATHER CONDITIONS ARE NOT AVAILABLE FOR
       CHILLICOTHE AND FARMINGTON.

MOZ001>031-035>038-043-044-053-054-090100-
...NORTHERN AND WESTERN MISSOURI...

CITY           SKY/WX    TMP DP  RH WIND       PRES   REMARKS
KANSAS CTY INT MOCLDY    30  16  56 NW21G29   30.09R WCI  17
6HR MIN TEMP:  30; 6HR MAX TEMP:  33; 6HR PCP: TRACE;

KANSAS C DTWN  PTCLDY    32  15  49 NW16G29   30.10R WCI  21
6HR MIN TEMP:  32; 6HR MAX TEMP:  34; 6HR PCP: TRACE;

LEE`S SUMMIT   PTCLDY    30  14  51 NW20G35   30.08R WCI  17
6HR MIN TEMP:  29; 6HR MAX TEMP:  32; 6HR PCP: TRACE;

ST JOSEPH      MOCLDY    30  15  53 N21G32    30.10S WCI  17
6HR MIN TEMP:  29; 6HR MAX TEMP:  32; 6HR PCP: TRACE;

CHILLICOTHE      N/A     26  14  60 NW12G28   30.08R WCI  16
6HR MIN TEMP:  26; 6HR MAX TEMP:  28;

KIRKSVILLE     FLURRIES  20   8  60 NW17G30   30.00R WCI   5
6HR MIN TEMP:  20; 6HR MAX TEMP:  23; 6HR PCP: TRACE;


$$
MOZ066>068-077>081-088>096-101>105-090100-
...SOUTHWEST MISSOURI...

CITY           SKY/WX    TMP DP  RH WIND       PRES   REMARKS
SPRINGFIELD    CLOUDY    33  13  43 NW22G33   30.04R WCI  21
6HR MIN TEMP:  32; 6HR MAX TEMP:  34; 6HR PCP: TRACE;

JOPLIN         MOCLDY    35  15  44 NW14G23   30.13R WCI  26
6HR MIN TEMP:  33; 6HR MAX TEMP:  40; 6HR PCP: TRACE;


$$
MOZ032>034-039>042-045>050-055>058-069>072-090100-
...CENTRAL MISSOURI...

CITY           SKY/WX    TMP DP  RH WIND       PRES   REMARKS
COLUMBIA       CLOUDY    25  15  66 NW20G29   30.00R WCI  11
6HR MIN TEMP:  25; 6HR MAX TEMP:  27; 6HR PCP: TRACE;

JEFFERSON CITY CLOUDY    27  14  58 NW14      30.03R WCI  16
6HR MIN TEMP:  27; 6HR MAX TEMP:  29; 6HR PCP: TRACE;

ROLLA          FLURRIES  25  15  66 NW25G31   29.96R WCI   9
6HR MIN TEMP:  25; 6HR MAX TEMP:  28; 6HR PCP: TRACE;

SEDALIA        CLOUDY    27  16  63 NW18G30   30.07R WCI  14
6HR MIN TEMP:  27; 6HR MAX TEMP:  31; 6HR PCP: TRACE;

WARRENSBURG    CLOUDY    30  18  59 NW18G28   30.09R WCI  18
OSAGE BEACH    CLOUDY    28  12  50 W12G26    30.03S WCI  18

$$
MOZ051-052-059>065-090100-
...EAST CENTRAL MISSOURI...

CITY           SKY/WX    TMP DP  RH WIND       PRES   REMARKS
ST LOUIS INTL  LGT SNOW  25  17  72 NW17G25   29.95R WCI  12
6HR MIN TEMP:  25; 6HR MAX TEMP:  30; 6HR PCP: TRACE;

SPIRIT OF STL  CLOUDY    25  15  66 W17       29.97R WCI  12
6HR MIN TEMP:  25; 6HR MAX TEMP:  28; 6HR PCP: TRACE;

ST CHARLES     FLURRIES  24  15  68 NW20G29   29.95S WCI  10
6HR MIN TEMP:  24; 6HR MAX TEMP:  27; 6HR PCP: TRACE;


$$
MOZ072>076-082>087-097>100-106>115-090100-
...SOUTH CENTRAL AND SOUTHEAST MISSOURI...

CITY           SKY/WX    TMP DP  RH WIND       PRES   REMARKS
CAPE GIRARDEAU CLOUDY    31  16  54 NW16      29.95R WCI  20
6HR MIN TEMP:  30; 6HR MAX TEMP:  38; 6HR PCP: TRACE;

FARMINGTON     MIX PCPN  27  15  61 NW16G23   29.94R WCI  15
6HR MIN TEMP:  27; 6HR MAX TEMP:  30; 6HR PCP: TRACE;

POPLAR BLUFF   CLOUDY    34  16  47 NW13      29.96R WCI  25
6HR MIN TEMP:  34; 6HR MAX TEMP:  39;

WEST PLAINS    LGT SNOW  30  20  66 NW17G24   30.00R WCI  18
6HR MIN TEMP:  30; 6HR MAX TEMP:  36; 6HR PCP: TRACE;


$$



USA.gov is the U.S. government's official web portal to all federal, state and local government web resources and services.